Weather in Gelendgik

Russia / Krasnodar Krai     44°33′40″N   38°04′36″E
temp.,
°C
wind,
m/s
gust,
m/s
humid.,
%
clouds,
%
prec.,
mm/h
press.,
hPa
HPBL,
m
23 january, sat
sat2300:00+9sse796766 0.0 1026687
03:00+9sse796876 0.0 1025705
06:00+9sse89710 0.0 1024755
09:00+9sse797033 0.0 1024579
12:00+9sse787446 0.0 1024556
15:00+9sse787264 0.0 1023518
18:00+9se68700 0.0 1022461
21:00+9se68710 0.0 1022404
24 january, sun
sun2400:00+9ese57710 0.0 1021375
03:00+8ese566813 0.0 1020270
06:00+9ese585695 0.0 1019377
09:00+9ese585297 0.0 1019423
12:00+10se61160100 0.0 1017579
15:00+10se81272100 0.0 1016593
18:00+10se71074100 0.0 1017527
21:00+10sse6879100 0.0 1017449
25 january, mon
mon2500:00+9se6880100 0.0 1017376
03:00+10se6978100 0.0 1017381
06:00+10se7107750 0.0 1017406
09:00+10se7117748 0.0 1017446
12:00+10se7107591 0.0 1016424
15:00+10se8117595 0.0 1014429
18:00+10se91377100 0.0 1013468
21:00+10se91377100 0.0 1014553
26 january, tue
tue2600:00+11sse11157466 0.0 1013509
03:00+11sse10157483 0.0 1014558
06:00+11sse111674100 0.0 1013457
09:00+11sse142167100 0.0 1012528
12:00+11sse142068100 0.0 1012593
15:00+10wsw71083100 0.0 1013620
18:00+9wsw5680100 0.1 1016716
21:00+9sw3376100 0.1 1017589
27 january, wed
wed2700:00+9s1275100 0.0 1017503
03:00+9n1175100 0.0 1015315
06:00+8n4487100 2.3 1014214
09:00+8ne5587100 6.2 1013160
12:00+8ne5687100 0.9 1012201
15:00+8ne5586100 2.7 1009206
18:00+8ne5584100 0.8 1008145
21:00+8ene5684100 2.4 1006225